Regional Weather Roundup
Issued by NWS

Home | Current Version | Previous Version | Text Only | Print | Product List | Glossary On
Versions: 1 2 3 4 5 6 7 8 9 10 11 12 13 14 15 16 17 18 19 20 21 22 23 24 25 26 27
000
ASUS42 KKEY 101210
RWRKEY

FLORIDA REGIONAL WEATHER ROUNDUP FOR THE FLORIDA KEYS
NATIONAL WEATHER SERVICE KEY WEST FLORIDA
700 AM EST SAT DEC 10 2016

...SOUTH FLORIDA AND THE KEYS...

CITY           SKY/WX    TMP DP  RH WIND       PRES   REMARKS
FORT MYERS     CLOUDY    57  48  72 NE12      30.27S
SW REGIONAL AP CLOUDY    57  48  72 N7        30.27F
NAPLES         CLOUDY    59  50  72 NE14      30.24S
MIAMI          LGT RAIN  65  65 100 N6        30.23R FOG
WEST KENDALL   CLOUDY    66  63  90 N8        30.22R
HOMESTEAD      MOCLDY    66  66 100 NW8       30.21R
MARATHON       CLOUDY    71  66  84 NE15G22   30.19R
BOCA CHICA NAS CLOUDY    68  65  90 NE14G22   30.20R
KEY WEST INTL  CLOUDY    70  67  90 NE16G23   30.20R

...INTERNATIONAL WEATHER...

CITY           SKY/WX    TMP DP  RH WIND       PRES   REMARKS
NASSAU BAHAMAS MOCLDY    75  66  73 E6        30.18R
CANCUN MEXICO  LGT RAIN  73  73 100 N6        30.13R
COZUMEL MEXICO CLOUDY    73  72  94 NW6       30.10S

ADJACENT COASTAL WATERS...

STATION/POSITION TIME  SKY/WX   TEMP    WIND        PRES    WAVE
                                AIR SEA DIR/SP/G            HT/PER
                 (UTC)          (F)     (DEG/KT/KT) (MB)    (FT/S)
PULASKI SHOAL LI 1200            70      40/ 22/ 25 1022.8R
SAND KEY         1150            70      50/ 22/ 25 1022.5R
LONG KEY         1200            69 74   20/ 20/ 22 1022.7R
MOLASSES REEF    1200            70 78   10/ 15/ 16 1022.6R
FOWEY ROCKS      1200            70 77  340/ 14/ 15 1023.5R

$$




USA.gov is the U.S. government's official web portal to all federal, state and local government web resources and services.